Probability
0 0 0 0 0 0 0 0 0 0 0 0 0 0 0 0 0 0 0 0 0 0 0 0 0 0 0 0 0 0 0 0 0 0 0 0 0 0 0 0 0 0 0
0 0 0 0 0 0 0 0 0 0 0 0 0 0 0 0 0 0 0 0 0 0 0 0 0 0 0 0 0 0 0 0 0 0 0 0 0 0 0 0 0 0 0
0 0 0 0 0 0 0 0 0 0 0 0 0 0 0 0 0 0 0 0 0 0 0 0 0 0 0 0 0 0 0 0 0 0 0 0 0 0 0 0 0 0 0
0 0 0 0 0 0 0 0 0 0 0 0 0 0 0 0 0 0 0 0 0 0 0 0 0 0 0 0 0 0 0 0 0 0 0 0 0 0 0 0 0 0 0
0 0 0 0 0 0 0 0 0 0 0 0 0 0 0 0 0 0 0 0 0 0 0 0 0 0 0 0 0 0 0 0 0 0 0 0 0 0 0 0 0 0 0
0 0 0 0 0 0 0 0 0 0 0 0 0 0 0 0 0 0 0 0 0 0 0 0 0 0 0 0 0 0 0 0 0 0 0 0 0 0 0 0 0 0 0
0 0 0 0 0 0 0 0 0 0 0 0 0 0 0 0 0 0 0 0 0 0 0 0 0 0 0 0 0 0 0 0 0 0 0 0 0 0 0 0 0 0 0
0 0 0 0 0 0 0 0 0 0 0 0 0 0 0 0 0 0 0 0 0 0 0 0 0 0 0 0 0 0 0 0 0 0 0 0 0 0 0 0 0 0 0
0 0 0 0 0 0 0 0 0 0 0 0 0 0 0 0 0 0 0 0 0 0 0 0 0 0 0 0 0 0 0 0 0 0 0 0 0 0 0 0 0 0 0
0 0 0 0 0 0 0 0 0 0 0 0 0 0 0 0 0 0 0 0 0 0 0 0 0 0 0 0 0 0 0 0 0 0 0 0 0 0 0 0 0 0 0
0 0 0 0 0 0 0 0 0 0 0 0 0 0 0 0 0 0 0 0 0 0 0 0 0 0 0 0 0 0 0 0 0 0 0 0 0 0 0 0 0 0 0
0 0 0 0 0 0 0 0 0 0 0 0 0 0 0 0 0 0 0 0 0 0 0 0 0 0 0 0 0 0 0 0 0 0 0 0 0 0 0 0 0 0 0
0 0 0 0 0 0 0 0 0 0 0 0 0 0 0 0 0 0 0 0 0 0 0 0 0 0 0 0 0 0 0 0 0 0 0 0 0 0 0 0 0 0 0
0 0 0 0 0 0 0 0 0 0 0 0 0 0 0 0 0 0 0 0 0 0 0 0 0 0 0 0 0 0 0 0 0 0 0 0 0 0 0 0 0 0 0
0 0 0 0 0 0 0 0 0 0 0 0 0 0 0 0 0 0 0 0 0 0 0 0 0 0 0 0 0 0 0 0 0 0 0 0 0 0 0 0 0 0 0
0 0 0 0 0 0 0 0 0 0 0 0 0 0 0 0 0 0 0 0 0 0 0 0 0 0 0 0 0 0 0 0 0 0 0 0 0 0 0 0 0 0 0
0 0 0 0 0 0 0 0 0 0 0 0 0 0 0 0 0 0 0 0 0 0 0 0 0 0 0 0 0 0 0 0 0 0 0 0 0 0 0 0 0 0 0
0 0 0 0 0 0 0 0 0 0 0 0 0 0 0 0 0 0 0 0 0 0 0 0 0 0 0 0 0 0 0 0 0 0 0 0 0 0 0 0 0 0 0
0 0 0 0 0 0 0 0 0 0 0 0 0 0 0 0 0 0 0 0 0 0 0 0 0 0 0 0 0 0 0 0 0 0 0 0 0 0 0 0 0 0 0
0 0 0 0 0 0 0 0 0 0 0 0 0 0 0 0 0 0 0 0 0 0 0 0 0 0 0 0 0 0 0 0 0 0 0 0 0 0 0 0 0 0 0
0 0 0 0 0 0 0 0 0 0 0 0 0 0 0 0 0 0 0 0 0 0 0 0 0 0 0 0 0 0 0 0 0 0 0 0 0 0 0 0 0 0 0
0 0 0 0 0 0 0 0 0 0 0 0 0 0 0 0 0 0 0 0 0 0 0 0 0 0 0 0 0 0 0 0 0 0 0 0 0 0 0 0 0 0 0
0 0 0 0 0 0 0 0 0 0 0 0 0 0 0 0 0 0 0 0 0 0 0 0 0 0 0 0 0 0 0 0 0 0 0 0 0 0 0 0 0 0 0
0 0 0 0 0 0 0 0 0 0 0 0 0 0 0 0 0 0 0 0 0 0 0 0 0 0 0 0 0 0 0 0 0 0 0 0 0 0 0 0 0 0 0
0 0 0 0 0 0 0 0 0 0 0 0 0 0 0 0 0 0 0 0 0 0 0 0 0 0 0 0 0 0 0 0 0 0 0 0 0 0 0 0 0 0 0
0 0 0 0 0 0 0 0 0 0 0 0 0 0 0 0 0 0 0 0 0 0 0 0 0 0 0 0 0 0 0 0 0 0 0 0 0 0 0 0 0 0 0
Wind_Speed
3 2 2 3 4 4 5 5 6 5 5 3 3 3 2 2 1 1 2 2 2 2 1 1 1 1 1 1 1 1 2 2 2 3 4 5 5 4 4 3 3 4 5
4 4 3 3 3 4 5 5 6 5 5 4 3 3 3 2 1 1 2 2 2 2 1 1 1 1 1 2 1 1 1 2 1 1 3 5 5 4 3 3 4 5 4
10 7 5 4 4 4 5 5 5 5 5 5 4 3 3 2 1 1 1 2 2 1 1 1 0 1 0 1 2 1 1 2 2 1 1 2 4 5 4 4 4 4 4
8 7 7 6 5 5 4 5 5 5 5 5 5 5 3 2 2 1 0 1 2 2 1 1 1 1 1 1 2 1 2 2 2 2 3 4 4 4 6 4 4 5 6
10 10 9 7 6 5 5 5 5 5 4 4 5 5 3 2 1 1 0 1 2 2 2 1 1 1 1 2 2 2 2 2 3 3 3 3 3 6 6 8 5 4 5
9 8 6 6 5 5 5 5 5 4 4 4 5 5 5 4 3 1 0 1 1 1 2 1 1 1 2 2 3 3 4 4 4 4 4 4 4 4 5 8 8 7 5
9 9 9 8 7 7 6 6 6 5 4 4 4 4 5 4 4 2 2 1 1 1 2 2 2 2 3 3 3 3 4 4 5 5 5 5 6 5 6 8 10 9 6
10 11 11 10 9 9 8 7 7 5 5 5 4 3 4 3 2 2 2 2 2 2 3 3 3 4 4 4 4 4 5 5 5 7 6 5 6 6 6 6 8 12 8
10 10 9 9 9 9 9 8 8 6 5 5 4 4 3 3 3 2 2 2 3 3 3 3 4 4 5 5 5 4 6 5 6 7 7 6 6 6 6 6 6 8 13
8 8 9 9 8 8 7 6 7 7 5 5 4 3 3 3 3 2 3 3 3 3 4 4 5 5 5 6 5 5 6 6 7 6 7 7 6 6 6 6 7 7 10
9 9 8 7 7 6 6 7 6 6 5 5 4 4 3 3 3 3 4 4 4 4 5 5 5 6 6 6 6 7 7 8 8 8 8 9 8 7 6 6 7 7 8
6 7 7 7 7 8 7 7 7 6 6 5 4 4 3 3 3 4 4 4 5 5 5 5 6 6 7 7 7 8 8 8 9 9 9 10 8 9 7 7 8 8 9
5 5 6 8 9 8 8 7 7 6 5 5 4 3 3 3 4 5 4 4 5 5 5 5 6 7 7 8 8 8 9 9 10 10 10 11 10 10 8 9 9 8 10
5 6 7 8 8 8 8 7 6 6 5 4 4 4 4 5 5 4 4 5 5 5 6 6 7 7 8 8 9 9 9 10 10 10 11 11 10 11 10 10 10 10 10
6 7 8 7 7 7 7 7 6 5 5 5 4 5 4 4 4 4 5 5 5 6 6 6 7 7 7 8 9 9 10 10 10 10 10 11 14 18 15 12 10 9 9
7 7 7 7 8 8 8 7 6 6 5 5 5 4 3 4 4 5 5 5 6 6 6 7 8 8 9 16 21 17 10 9 10 10 9 10 14 17 23 25 24 20 14
6 6 7 8 8 8 8 7 6 5 5 4 4 3 3 4 5 5 5 6 6 6 7 8 8 9 12 20 22 23 14 10 9 9 9 10 11 17 10 17 23 21 24
5 5 5 5 5 5 5 5 4 4 4 4 3 4 4 5 5 5 6 7 6 6 7 8 9 10 13 21 23 23 14 9 9 10 10 11 11 11 14 12 12 12 14
3 3 4 4 5 5 5 5 4 3 3 4 4 4 4 5 5 6 7 7 6 7 8 8 9 10 13 20 23 23 10 8 10 10 10 11 11 19 24 16 13 13 12
2 3 3 4 5 4 5 5 4 3 4 5 4 4 4 5 6 7 7 6 6 8 9 9 9 10 12 18 23 23 8 9 9 8 9 17 19 22 25 15 12 14 12
3 4 4 4 3 4 4 4 3 4 4 3 3 4 5 5 6 6 6 7 7 8 9 10 10 9 13 17 21 22 11 8 10 9 7 8 21 25 25 22 13 17 17
3 4 4 3 2 3 3 3 3 3 3 3 4 5 5 6 6 6 7 7 7 9 9 10 10 8 9 14 17 22 21 20 12 10 8 10 22 25 26 20 19 24 20
3 3 4 3 1 2 3 3 3 2 2 3 5 5 6 6 6 6 8 7 6 7 8 8 10 9 7 9 20 23 24 24 15 10 18 22 25 24 16 18 23 18 7
3 2 3 2 1 2 2 3 3 3 3 4 5 5 6 6 6 6 6 7 7 7 8 9 10 10 9 7 7 9 11 16 14 11 15 22 21 17 16 15 11 6 6
2 2 2 2 2 2 3 3 3 3 4 5 6 6 6 7 7 7 7 8 8 9 11 9 9 11 11 13 21 16 10 9 11 13 8 6 6 5 5 6 6 6 6
2 2 2 2 3 3 4 4 3 3 4 5 6 5 5 6 6 7 9 13 15 20 22 22 20 15 20 27 27 27 26 26 24 16 7 6 6 7 7 7 7 6 6
Wind_Direction
211 168 138 124 112 113 126 135 134 138 135 126 125 121 116 98 78 69 65 62 58 61 76 45 1 8 345 312 317 310 311 301 311 321 309 294 285 284 273 270 280 288 288
192 184 163 142 133 134 136 137 140 142 143 136 130 126 126 117 105 65 50 49 53 48 63 56 346 349 342 341 338 329 313 300 335 335 325 327 327 325 295 289 282 278 285
192 187 178 172 153 151 156 150 145 140 135 126 111 93 80 70 63 49 29 13 25 33 44 41 4 340 308 295 295 266 241 284 296 220 235 296 292 303 286 274 268 275 283
189 185 182 180 177 173 157 145 141 136 136 136 138 139 143 155 178 170 150 351 12 18 20 21 12 318 282 280 283 265 232 230 272 276 233 229 243 281 299 289 278 274 272
190 188 187 182 175 165 157 148 138 135 139 141 144 137 134 145 145 130 70 4 356 359 358 354 346 312 285 277 277 279 253 226 236 244 249 254 250 237 261 283 280 276 258
191 187 179 166 164 160 155 150 144 144 145 142 142 144 147 150 146 151 161 330 326 325 332 327 314 291 280 277 272 264 259 249 246 246 237 236 244 244 250 274 283 279 265
185 182 179 178 176 174 171 164 157 157 157 149 150 156 158 160 168 182 198 237 276 282 295 306 296 288 279 276 270 265 264 256 251 249 246 241 243 246 254 272 285 284 275
190 191 189 185 183 180 175 171 169 166 165 161 161 158 156 158 173 187 196 217 232 249 264 276 279 280 280 280 273 266 262 258 253 257 254 252 251 247 247 257 281 292 286
195 195 190 187 184 182 182 178 172 169 172 170 161 161 163 169 185 199 206 225 240 254 262 270 276 278 277 274 271 264 265 264 258 256 257 256 256 250 250 250 251 272 291
200 197 193 190 187 184 179 174 174 175 173 170 171 171 178 185 190 197 224 239 250 254 266 272 273 276 276 274 270 268 266 265 264 260 259 259 258 254 249 249 250 249 267
205 200 195 187 179 173 172 176 178 173 174 176 175 173 186 191 196 216 235 243 252 257 261 266 271 274 275 273 270 268 270 268 269 268 265 263 261 260 256 252 251 252 256
208 196 186 175 176 179 179 182 182 182 184 178 175 184 191 197 215 237 247 249 256 260 261 267 271 273 274 271 269 272 273 269 270 270 268 268 268 262 258 256 255 256 253
204 189 182 184 187 187 185 185 187 188 181 172 175 188 203 215 231 244 252 255 259 266 268 267 269 272 273 273 269 266 268 265 264 265 265 267 266 267 263 258 259 260 262
206 194 194 195 192 188 186 186 189 183 175 173 181 200 216 223 235 247 255 259 260 265 268 267 267 270 274 273 272 269 266 264 264 262 261 262 261 263 264 265 262 261 263
214 204 201 196 189 186 186 185 185 181 175 177 194 214 223 231 242 252 259 263 263 266 267 272 274 274 276 273 273 269 266 265 267 265 261 261 267 271 274 276 268 262 264
223 211 201 191 190 190 189 185 185 182 174 186 207 218 226 240 250 256 262 267 270 271 271 272 274 276 279 290 294 293 280 270 268 270 268 268 276 281 284 288 289 285 279
224 209 201 197 195 192 185 185 184 171 176 195 213 224 233 247 256 263 269 270 271 271 274 273 273 274 278 291 295 295 293 278 271 270 273 278 277 287 279 283 285 285 283
219 210 195 189 183 171 166 160 155 167 182 201 223 236 239 251 261 266 268 270 269 270 273 275 274 275 280 292 298 299 294 279 271 268 267 270 274 273 280 272 268 265 267
201 191 179 166 153 155 153 146 155 169 189 215 232 241 243 254 264 267 269 271 272 274 274 274 275 275 282 291 297 298 286 277 273 270 268 272 271 278 287 286 278 276 270
139 140 132 127 138 146 142 147 167 185 216 229 239 248 249 254 261 264 269 270 269 276 280 279 273 272 276 287 294 296 285 280 278 273 267 279 284 287 290 287 280 280 278
118 122 123 127 143 142 140 158 186 219 232 242 253 259 257 257 261 264 266 272 277 281 280 281 278 271 274 286 292 295 291 279 281 280 276 271 288 291 292 292 285 282 286
116 123 124 126 132 140 147 180 227 239 245 253 261 264 264 267 274 269 274 274 277 283 284 285 285 274 272 282 288 292 293 294 290 285 281 277 288 292 294 295 292 294 298
137 131 133 132 140 162 171 207 241 249 258 265 267 268 270 266 266 267 275 279 273 277 284 285 287 288 276 276 288 293 295 295 292 282 285 291 295 299 299 295 296 299 296
147 137 135 153 212 223 222 229 250 259 259 266 271 273 273 274 269 266 268 272 275 276 281 283 286 288 286 278 274 274 284 289 289 288 287 292 295 294 293 295 297 286 274
152 152 170 204 240 256 264 263 259 258 266 269 273 275 272 272 275 269 262 270 260 264 279 280 278 286 289 287 293 295 291 285 280 290 284 281 286 282 280 280 278 272 275
157 168 204 233 256 268 276 277 269 260 264 277 276 274 275 275 276 282 286 277 277 285 287 289 289 287 289 297 299 300 300 301 300 300 291 289 288 286 285 286 286 281 278